Tracking 18850 objects as of 22-Nov-2017
HD Live streaming from Space Station
objects crossing your sky now

ORBCOMM FM 25

Track ORBCOMM FM 25 now!
10-day predictions
ORBCOMM FM 25 is classified as:


NORAD ID: 25479
Int'l Code: 1998-053E
Perigee: 787.9 km
Apogee: 792.4 km
Inclination: 45.0 °
Period: 100.5 minutes
Semi major axis: 7161 km
RCS: 0.6218 m2 (medium)
Launch date: September 23, 1998
Source: ORBCOMM (ORB)
Launch site: Pegasus launched from Eastern Range Air Space (ERAS)
aabbcc
Your satellite tracking list
Your tracking list is empty




NASA's NSSDC Master Catalog

Two Line Element Set (TLE):
1 25479U 98053E   17326.45890210  .00000170  00000-0  11349-3 0  9999
2 25479  45.0098 321.6897 0003110 201.3495 158.7222 14.32608628  1075
Source of the keplerian elements: AFSPC